Index of /20260504/WXO-DD/model_gdps/15km/12/189
Name Last modified Size Description
Parent Directory -
20260504T12Z_MSC_GDPS_AirTemp_AGL-120m_LatLon0.15_PT189H.grib2 2026-05-04 16:48 908K
20260504T12Z_MSC_GDPS_AirTemp_AGL-2m_LatLon0.15_PT189H.grib2 2026-05-04 16:48 1.0M
20260504T12Z_MSC_GDPS_AirTemp_AGL-40m_LatLon0.15_PT189H.grib2 2026-05-04 16:48 810K
20260504T12Z_MSC_GDPS_AirTemp_AGL-80m_LatLon0.15_PT189H.grib2 2026-05-04 16:48 799K
20260504T12Z_MSC_GDPS_AirTemp_IsbL-0001_LatLon0.15_PT189H.grib2 2026-05-04 16:48 668K
20260504T12Z_MSC_GDPS_AirTemp_IsbL-0005_LatLon0.15_PT189H.grib2 2026-05-04 16:48 691K
20260504T12Z_MSC_GDPS_AirTemp_IsbL-0500_LatLon0.15_PT189H.grib2 2026-05-04 16:48 1.0M
20260504T12Z_MSC_GDPS_AirTemp_IsbL-0700_LatLon0.15_PT189H.grib2 2026-05-04 16:48 964K
20260504T12Z_MSC_GDPS_AirTemp_IsbL-0850_LatLon0.15_PT189H.grib2 2026-05-04 16:48 1.1M
20260504T12Z_MSC_GDPS_AirTemp_IsbL-0925_LatLon0.15_PT189H.grib2 2026-05-04 16:48 1.1M
20260504T12Z_MSC_GDPS_AirTemp_IsbL-1000_LatLon0.15_PT189H.grib2 2026-05-04 16:48 1.1M
20260504T12Z_MSC_GDPS_Albedo_Sfc_LatLon0.15_PT189H.grib2 2026-05-04 16:48 245K
20260504T12Z_MSC_GDPS_ConvectivePrecip-Accum_Sfc_LatLon0.15_PT189H.grib2 2026-05-04 16:48 3.9M
20260504T12Z_MSC_GDPS_DewPointDepression_AGL-2m_LatLon0.15_PT189H.grib2 2026-05-04 16:48 762K
20260504T12Z_MSC_GDPS_DewPointDepression_IsbL-0500_LatLon0.15_PT189H.grib2 2026-05-04 16:48 1.0M
20260504T12Z_MSC_GDPS_DewPointDepression_IsbL-0700_LatLon0.15_PT189H.grib2 2026-05-04 16:48 1.1M
20260504T12Z_MSC_GDPS_DewPointDepression_IsbL-0850_LatLon0.15_PT189H.grib2 2026-05-04 16:48 1.2M
20260504T12Z_MSC_GDPS_DewPointDepression_IsbL-0925_LatLon0.15_PT189H.grib2 2026-05-04 16:48 1.0M
20260504T12Z_MSC_GDPS_DewPointDepression_IsbL-1000_LatLon0.15_PT189H.grib2 2026-05-04 16:48 969K
20260504T12Z_MSC_GDPS_DewPoint_AGL-2m_LatLon0.15_PT189H.grib2 2026-05-04 16:48 610K
20260504T12Z_MSC_GDPS_DownwardLongwaveRadiationFlux-Accum_Sfc_LatLon0.15_PT189H.grib2 2026-05-04 16:48 662K
20260504T12Z_MSC_GDPS_DownwardShortwaveRadiationFlux-Accum_Sfc_LatLon0.15_PT189H.grib2 2026-05-04 16:48 847K
20260504T12Z_MSC_GDPS_FreezingRain-Accum_Sfc_LatLon0.15_PT189H.grib2 2026-05-04 16:48 499K
20260504T12Z_MSC_GDPS_GeopotentialHeight_IsbL-0001_LatLon0.15_PT189H.grib2 2026-05-04 16:48 445K
20260504T12Z_MSC_GDPS_GeopotentialHeight_IsbL-0005_LatLon0.15_PT189H.grib2 2026-05-04 16:48 491K
20260504T12Z_MSC_GDPS_GeopotentialHeight_IsbL-0500_LatLon0.15_PT189H.grib2 2026-05-04 16:48 534K
20260504T12Z_MSC_GDPS_GeopotentialHeight_IsbL-0700_LatLon0.15_PT189H.grib2 2026-05-04 16:48 697K
20260504T12Z_MSC_GDPS_GeopotentialHeight_IsbL-0850_LatLon0.15_PT189H.grib2 2026-05-04 16:48 722K
20260504T12Z_MSC_GDPS_GeopotentialHeight_IsbL-0925_LatLon0.15_PT189H.grib2 2026-05-04 16:48 737K
20260504T12Z_MSC_GDPS_GeopotentialHeight_IsbL-1000_LatLon0.15_PT189H.grib2 2026-05-04 16:48 605K
20260504T12Z_MSC_GDPS_IcePellets-Accum_Sfc_LatLon0.15_PT189H.grib2 2026-05-04 16:48 239K
20260504T12Z_MSC_GDPS_LatentHeatNetFlux_Sfc_LatLon0.15_PT189H.grib2 2026-05-04 16:48 566K
20260504T12Z_MSC_GDPS_NetLongwaveRadiationFlux-Accum_Sfc_LatLon0.15_PT189H.grib2 2026-05-04 16:48 886K
20260504T12Z_MSC_GDPS_NetShortwaveRadiationFlux-Accum_Sfc_LatLon0.15_PT189H.grib2 2026-05-04 16:48 845K
20260504T12Z_MSC_GDPS_O3MixingRatio_Sfc_LatLon0.15_PT189H.grib2 2026-05-04 17:19 1.9M
20260504T12Z_MSC_GDPS_O3_EAtm_LatLon0.15_PT189H.grib2 2026-05-04 17:19 2.4M
20260504T12Z_MSC_GDPS_PlanetaryBoundaryLayerHeight_Sfc_LatLon0.15_PT189H.grib2 2026-05-04 16:48 2.5M
20260504T12Z_MSC_GDPS_Precip-Accum_Sfc_LatLon0.15_PT189H.grib2 2026-05-04 16:48 5.4M
20260504T12Z_MSC_GDPS_PrecipRate_Sfc_LatLon0.15_PT189H.grib2 2026-05-04 16:48 3.1M
20260504T12Z_MSC_GDPS_Pressure_MSL_LatLon0.15_PT189H.grib2 2026-05-04 16:48 831K
20260504T12Z_MSC_GDPS_Pressure_Sfc_LatLon0.15_PT189H.grib2 2026-05-04 16:48 1.1M
20260504T12Z_MSC_GDPS_RadiativeTemp_Sfc_LatLon0.15_PT189H.grib2 2026-05-04 16:48 504K
20260504T12Z_MSC_GDPS_Rain-Accum_Sfc_LatLon0.15_PT189H.grib2 2026-05-04 16:48 4.3M
20260504T12Z_MSC_GDPS_RelativeHumidity_AGL-2m_LatLon0.15_PT189H.grib2 2026-05-04 16:48 1.0M
20260504T12Z_MSC_GDPS_Runoff-Accum_Sfc_LatLon0.15_PT189H.grib2 2026-05-04 16:48 128K
20260504T12Z_MSC_GDPS_SensibleHeatNetFlux_Sfc_LatLon0.15_PT189H.grib2 2026-05-04 16:48 667K
20260504T12Z_MSC_GDPS_Snow-Accum_Sfc_LatLon0.15_PT189H.grib2 2026-05-04 16:48 2.1M
20260504T12Z_MSC_GDPS_SnowDepth_Sfc_LatLon0.15_PT189H.grib2 2026-05-04 16:48 1.7M
20260504T12Z_MSC_GDPS_SoilTemp_DBS-0to10cm_LatLon0.15_PT189H.grib2 2026-05-04 16:48 517K
20260504T12Z_MSC_GDPS_SoilTemp_Sfc_LatLon0.15_PT189H.grib2 2026-05-04 16:48 588K
20260504T12Z_MSC_GDPS_SoilVolumetricWaterContent_DBS-0to10cm_LatLon0.15_PT189H.grib2 2026-05-04 16:48 603K
20260504T12Z_MSC_GDPS_SoilVolumetricWaterContent_DBS-0to1cm_LatLon0.15_PT189H.grib2 2026-05-04 16:48 653K
20260504T12Z_MSC_GDPS_SpecificHumidity_AGL-120m_LatLon0.15_PT189H.grib2 2026-05-04 16:48 1.1M
20260504T12Z_MSC_GDPS_SpecificHumidity_AGL-2m_LatLon0.15_PT189H.grib2 2026-05-04 16:48 1.2M
20260504T12Z_MSC_GDPS_SpecificHumidity_AGL-40m_LatLon0.15_PT189H.grib2 2026-05-04 16:48 1.1M
20260504T12Z_MSC_GDPS_SpecificHumidity_AGL-80m_LatLon0.15_PT189H.grib2 2026-05-04 16:48 1.1M
20260504T12Z_MSC_GDPS_SpecificHumidity_IsbL-0001_LatLon0.15_PT189H.grib2 2026-05-04 16:48 1.2M
20260504T12Z_MSC_GDPS_SpecificHumidity_IsbL-0005_LatLon0.15_PT189H.grib2 2026-05-04 16:48 1.1M
20260504T12Z_MSC_GDPS_SpecificHumidity_IsbL-0500_LatLon0.15_PT189H.grib2 2026-05-04 16:48 1.5M
20260504T12Z_MSC_GDPS_SpecificHumidity_IsbL-0700_LatLon0.15_PT189H.grib2 2026-05-04 16:48 1.7M
20260504T12Z_MSC_GDPS_SpecificHumidity_IsbL-0850_LatLon0.15_PT189H.grib2 2026-05-04 16:48 2.0M
20260504T12Z_MSC_GDPS_SpecificHumidity_IsbL-0925_LatLon0.15_PT189H.grib2 2026-05-04 16:48 1.6M
20260504T12Z_MSC_GDPS_SpecificHumidity_IsbL-1000_LatLon0.15_PT189H.grib2 2026-05-04 16:48 1.5M
20260504T12Z_MSC_GDPS_SpecificHumidity_Sfc_LatLon0.15_PT189H.grib2 2026-05-04 16:48 695K
20260504T12Z_MSC_GDPS_Thickness_IsbL-0850to0700_LatLon0.15_PT189H.grib2 2026-05-04 16:48 477K
20260504T12Z_MSC_GDPS_Thickness_IsbL-1000to0500_LatLon0.15_PT189H.grib2 2026-05-04 16:48 380K
20260504T12Z_MSC_GDPS_Thickness_IsbL-1000to0850_LatLon0.15_PT189H.grib2 2026-05-04 16:48 496K
20260504T12Z_MSC_GDPS_TotalCloudCover_Sfc_LatLon0.15_PT189H.grib2 2026-05-04 16:48 824K
20260504T12Z_MSC_GDPS_UVIndex-ClearSky_Sfc_LatLon0.15_PT189H.grib2 2026-05-04 17:19 1.1M
20260504T12Z_MSC_GDPS_UVIndex_Sfc_LatLon0.15_PT189H.grib2 2026-05-04 17:19 1.5M
20260504T12Z_MSC_GDPS_UpwardLongwaveRadiationFlux_NTAtm_LatLon0.15_PT189H.grib2 2026-05-04 16:48 847K
20260504T12Z_MSC_GDPS_VerticalVelocity_IsbL-0500_LatLon0.15_PT189H.grib2 2026-05-04 16:48 1.3M
20260504T12Z_MSC_GDPS_VerticalVelocity_IsbL-0700_LatLon0.15_PT189H.grib2 2026-05-04 16:48 1.4M
20260504T12Z_MSC_GDPS_VerticalVelocity_IsbL-0850_LatLon0.15_PT189H.grib2 2026-05-04 16:48 1.6M
20260504T12Z_MSC_GDPS_WindDir_AGL-10m_LatLon0.15_PT189H.grib2 2026-05-04 16:48 1.3M
20260504T12Z_MSC_GDPS_WindDir_AGL-120m_LatLon0.15_PT189H.grib2 2026-05-04 16:48 1.3M
20260504T12Z_MSC_GDPS_WindDir_AGL-40m_LatLon0.15_PT189H.grib2 2026-05-04 16:48 1.4M
20260504T12Z_MSC_GDPS_WindDir_AGL-80m_LatLon0.15_PT189H.grib2 2026-05-04 16:48 1.3M
20260504T12Z_MSC_GDPS_WindDir_IsbL-0001_LatLon0.15_PT189H.grib2 2026-05-04 16:48 647K
20260504T12Z_MSC_GDPS_WindDir_IsbL-0005_LatLon0.15_PT189H.grib2 2026-05-04 16:48 813K
20260504T12Z_MSC_GDPS_WindDir_IsbL-0500_LatLon0.15_PT189H.grib2 2026-05-04 16:48 1.4M
20260504T12Z_MSC_GDPS_WindDir_IsbL-0700_LatLon0.15_PT189H.grib2 2026-05-04 16:48 1.6M
20260504T12Z_MSC_GDPS_WindDir_IsbL-0850_LatLon0.15_PT189H.grib2 2026-05-04 16:48 1.9M
20260504T12Z_MSC_GDPS_WindDir_IsbL-0925_LatLon0.15_PT189H.grib2 2026-05-04 16:48 1.9M
20260504T12Z_MSC_GDPS_WindDir_IsbL-1000_LatLon0.15_PT189H.grib2 2026-05-04 16:48 2.0M
20260504T12Z_MSC_GDPS_WindGust-Max_AGL-10m_LatLon0.15_PT189H.grib2 2026-05-04 16:48 2.2M
20260504T12Z_MSC_GDPS_WindGust-Min_AGL-10m_LatLon0.15_PT189H.grib2 2026-05-04 16:48 2.2M
20260504T12Z_MSC_GDPS_WindGust_AGL-10m_LatLon0.15_PT189H.grib2 2026-05-04 16:48 2.2M
20260504T12Z_MSC_GDPS_WindSpeed_AGL-10m_LatLon0.15_PT189H.grib2 2026-05-04 16:48 1.1M
20260504T12Z_MSC_GDPS_WindSpeed_AGL-120m_LatLon0.15_PT189H.grib2 2026-05-04 16:48 1.2M
20260504T12Z_MSC_GDPS_WindSpeed_AGL-40m_LatLon0.15_PT189H.grib2 2026-05-04 16:48 1.2M
20260504T12Z_MSC_GDPS_WindSpeed_AGL-80m_LatLon0.15_PT189H.grib2 2026-05-04 16:48 1.2M
20260504T12Z_MSC_GDPS_WindSpeed_IsbL-0001_LatLon0.15_PT189H.grib2 2026-05-04 16:48 652K
20260504T12Z_MSC_GDPS_WindSpeed_IsbL-0005_LatLon0.15_PT189H.grib2 2026-05-04 16:48 689K
20260504T12Z_MSC_GDPS_WindSpeed_IsbL-0500_LatLon0.15_PT189H.grib2 2026-05-04 16:48 1.1M
20260504T12Z_MSC_GDPS_WindSpeed_IsbL-0700_LatLon0.15_PT189H.grib2 2026-05-04 16:48 1.5M
20260504T12Z_MSC_GDPS_WindSpeed_IsbL-0850_LatLon0.15_PT189H.grib2 2026-05-04 16:48 1.7M
20260504T12Z_MSC_GDPS_WindSpeed_IsbL-0925_LatLon0.15_PT189H.grib2 2026-05-04 16:48 1.8M
20260504T12Z_MSC_GDPS_WindSpeed_IsbL-1000_LatLon0.15_PT189H.grib2 2026-05-04 16:48 1.8M
20260504T12Z_MSC_GDPS_WindU_AGL-10m_LatLon0.15_PT189H.grib2 2026-05-04 16:48 1.6M
20260504T12Z_MSC_GDPS_WindU_AGL-120m_LatLon0.15_PT189H.grib2 2026-05-04 16:48 965K
20260504T12Z_MSC_GDPS_WindU_AGL-40m_LatLon0.15_PT189H.grib2 2026-05-04 16:48 961K
20260504T12Z_MSC_GDPS_WindU_AGL-80m_LatLon0.15_PT189H.grib2 2026-05-04 16:48 965K
20260504T12Z_MSC_GDPS_WindU_IsbL-0001_LatLon0.15_PT189H.grib2 2026-05-04 16:48 508K
20260504T12Z_MSC_GDPS_WindU_IsbL-0005_LatLon0.15_PT189H.grib2 2026-05-04 16:48 685K
20260504T12Z_MSC_GDPS_WindU_IsbL-0500_LatLon0.15_PT189H.grib2 2026-05-04 16:48 1.1M
20260504T12Z_MSC_GDPS_WindU_IsbL-0700_LatLon0.15_PT189H.grib2 2026-05-04 16:48 1.2M
20260504T12Z_MSC_GDPS_WindU_IsbL-0850_LatLon0.15_PT189H.grib2 2026-05-04 16:48 1.4M
20260504T12Z_MSC_GDPS_WindU_IsbL-0925_LatLon0.15_PT189H.grib2 2026-05-04 16:48 1.4M
20260504T12Z_MSC_GDPS_WindU_IsbL-1000_LatLon0.15_PT189H.grib2 2026-05-04 16:48 1.4M
20260504T12Z_MSC_GDPS_WindV_AGL-10m_LatLon0.15_PT189H.grib2 2026-05-04 16:48 1.6M
20260504T12Z_MSC_GDPS_WindV_AGL-120m_LatLon0.15_PT189H.grib2 2026-05-04 16:48 965K
20260504T12Z_MSC_GDPS_WindV_AGL-40m_LatLon0.15_PT189H.grib2 2026-05-04 16:48 960K
20260504T12Z_MSC_GDPS_WindV_AGL-80m_LatLon0.15_PT189H.grib2 2026-05-04 16:48 965K
20260504T12Z_MSC_GDPS_WindV_IsbL-0001_LatLon0.15_PT189H.grib2 2026-05-04 16:48 722K
20260504T12Z_MSC_GDPS_WindV_IsbL-0005_LatLon0.15_PT189H.grib2 2026-05-04 16:48 783K
20260504T12Z_MSC_GDPS_WindV_IsbL-0500_LatLon0.15_PT189H.grib2 2026-05-04 16:48 890K
20260504T12Z_MSC_GDPS_WindV_IsbL-0700_LatLon0.15_PT189H.grib2 2026-05-04 16:48 1.2M
20260504T12Z_MSC_GDPS_WindV_IsbL-0850_LatLon0.15_PT189H.grib2 2026-05-04 16:48 1.4M
20260504T12Z_MSC_GDPS_WindV_IsbL-0925_LatLon0.15_PT189H.grib2 2026-05-04 16:48 1.4M
20260504T12Z_MSC_GDPS_WindV_IsbL-1000_LatLon0.15_PT189H.grib2 2026-05-04 16:48 1.7M